Location: CCZU
(31.6840°N, 119.9550°E)
Time: 11:47:24
(UTC+08:00)

Hubble Space Telescope - Pass Details

Date: 02 October 2022
Orbit: 530 x 534 km, 28.5° (Epoch: 28 November)

Event Time Altitude Azimuth Distance (km) Brightness Sun altitude
Rises 18:48:53 0° 269° (W) 2,653 6.2 -14.5°
Maximum altitude 18:55:02 38° 193° (SSW) 811 1.7 -15.8°
Enters shadow 18:57:00 23° 140° (SE) 1,146 2.0 -16.3°
